Location: Unspecified
(0.0000°N, 0.0000°E)
Time: 18:15:46
(UTC+00:00)

Vanguard 2 Rocket - Visible Passes

Search period start: 02 July 2015 00:00
Search period end: 12 July 2015 00:00
Orbit: 555 x 3331 km, 32.9° (Epoch: 01 July)

Date Brightness Start Highest point End Pass type
(mag) Time Alt. Az. Time Alt. Az. Time Alt. Az.
02 Jul 11.0 02:12:46 10° NNW 02:25:39 20° N 02:37:38 10° NE visible
02 Jul 10.3 04:32:13 10° NW 04:48:06 35° NNE 04:59:10 10° E visible
02 Jul 7.9 18:15:41 10° SW 18:22:20 58° SE 18:34:18 10° ENE visible
02 Jul 9.3 20:28:40 10° W 20:38:00 47° NNW 20:53:31 10° NE visible
02 Jul 10.6 22:47:01 10° WNW 22:58:17 23° NNW 23:12:06 10° NNE visible
03 Jul 11.0 01:10:21 10° NW 01:22:26 19° N 01:34:40 10° NE visible
03 Jul 10.6 03:30:37 10° NNW 03:46:10 29° NNE 03:58:28 10° ENE visible
03 Jul 8.6 19:29:43 10° WSW 19:37:39 62° NNW 19:51:55 10° NE visible
03 Jul 10.3 21:46:00 10° WNW 21:56:12 27° NNW 22:10:11 10° NNE visible
04 Jul 10.9 00:07:59 10° NW 00:19:10 18° N 00:31:22 10° NE visible
04 Jul 10.8 02:29:01 10° NNW 02:43:38 24° NNE 02:56:44 10° ENE visible
04 Jul 9.9 04:47:17 10° NW 05:04:57 49° NNE 05:16:21 10° E visible
04 Jul 7.9 18:31:17 10° WSW 18:37:59 86° NW 18:50:23 10° NE visible
04 Jul 9.9 20:45:48 10° W 20:54:49 32° NNW 21:08:30 10° NE visible
04 Jul 10.8 23:05:57 10° NW 23:16:12 19° N 23:28:11 10° NNE visible
05 Jul 10.9 01:27:29 10° NNW 01:40:38 21° N 01:53:52 10° NE visible
05 Jul 10.3 03:45:47 10° NW 04:03:22 39° NNE 04:16:17 10° E visible
05 Jul 9.3 19:46:19 10° W 19:54:07 40° NNW 20:07:03 10° NE visible
05 Jul 10.6 22:04:30 10° NW 22:13:47 20° N 22:25:30 10° NNE visible
06 Jul 11.0 00:26:02 10° NNW 00:37:27 19° N 00:50:00 10° NE visible
06 Jul 10.6 02:44:31 10° NNW 03:01:10 32° NNE 03:15:17 10° E visible
06 Jul 9.4 05:02:31 10° NW 05:21:20 68° NNE 05:32:52 10° ESE visible
06 Jul 8.6 18:47:24 10° WSW 18:54:04 53° NNW 19:05:50 10° NE visible
06 Jul 10.3 21:03:44 10° WNW 21:12:03 22° NNW 21:23:24 10° NNE visible
06 Jul 10.9 23:24:41 10° NNW 23:34:22 17° N 23:45:40 10° NE visible
07 Jul 10.8 01:43:30 10° NNW 01:58:30 26° NNE 02:13:05 10° ENE visible
07 Jul 9.8 04:00:55 10° NW 04:20:05 54° NNE 04:33:21 10° ESE visible
07 Jul 9.9 20:03:39 10° WNW 20:11:00 26° NNW 20:21:51 10° NNE visible
07 Jul 10.8 22:23:28 10° NW 22:31:42 16° N 22:41:39 10° NNE visible
08 Jul 10.9 00:42:44 10° NNW 00:55:32 22° NNE 01:09:33 10° ENE visible
08 Jul 10.2 02:59:41 10° NW 03:18:12 43° NNE 03:33:00 10° E visible
08 Jul 9.1 05:18:06 10° NW 05:37:16 87° SW 05:48:49 10° SE visible
08 Jul 9.4 19:04:12 10° W 19:10:37 32° NNW 19:20:48 10° NE visible
08 Jul 10.6 21:22:31 10° NW 21:29:38 16° N 21:38:31 10° NNE visible
08 Jul 10.9 23:42:14 10° NNW 23:52:32 18° N 00:04:47 10° NE visible
09 Jul 10.5 01:58:53 10° NNW 02:15:51 34° NNE 02:31:36 10° E visible
09 Jul 9.4 04:16:12 10° NW 04:36:19 73° NNE 04:49:44 10° ESE visible
09 Jul 10.3 20:21:58 10° NW 20:28:16 18° N 20:36:27 10° NNE visible
09 Jul 10.9 22:41:55 10° NNW 22:49:47 15° N 22:59:26 10° NE visible
10 Jul 10.7 00:58:29 10° NNW 01:13:12 27° NNE 01:28:53 10° ENE visible
10 Jul 9.8 03:14:51 10° NW 03:34:44 58° NNE 03:49:57 10° ESE visible
10 Jul 9.1 05:34:11 10° WNW 05:52:55 63° SW 06:04:22 10° SE visible
10 Jul 10.0 19:21:54 10° WNW 19:27:33 20° NNW 19:35:18 10° NNE visible
10 Jul 10.8 21:41:42 10° NNW 21:47:30 13° N 21:54:30 10° NNE visible
10 Jul 10.8 23:58:29 10° NNW 00:10:26 22° NNE 00:24:41 10° ENE visible
11 Jul 10.1 02:14:02 10° NW 02:32:41 46° NNE 02:49:15 10° E visible
11 Jul 9.2 04:31:50 10° NW 04:52:10 84° SW 05:05:37 10° SE visible
11 Jul 9.5 18:22:21 10° WNW 18:27:26 24° NNW 18:34:49 10° NNE visible
11 Jul 10.6 20:41:25 10° NNW 20:45:50 13° N 20:50:58 10° NNE visible
11 Jul 10.8 22:58:55 10° NNW 23:07:47 17° NNE 23:19:03 10° NE visible
